This is the latest recevied weather packets stored in our database for station/object KC1TWD. If no packets are shown the sender has not sent any weather packets the latest 1 day(s).
| Time | Temp. | Humidity | Pressure | Rain* | Wind** | Luminosity | Snow |
|---|---|---|---|---|---|---|---|
| 1778048036 | 16.11° C | 75% | 1008.4 hPa | 0 mm | 0 m/s | - | - |
| 1778047735 | 16.67° C | 75% | 1008.2 hPa | 0 mm | 0 m/s | - | - |
| 1778047432 | 16.67° C | 75% | 1008.1 hPa | 0 mm | 0 m/s | - | - |
| 1778047129 | 16.67° C | 74% | 1008.1 hPa | 0 mm | 0 m/s | - | - |
| 1778046826 | 16.11° C | 74% | 1008.2 hPa | 0 mm | 0 m/s | - | - |
| 1778046523 | 16.11° C | 76% | 1008.2 hPa | 0 mm | 0 m/s | - | - |
| 1778046220 | 16.11° C | 78% | 1008.1 hPa | 0 mm | 0 m/s | - | - |
| 1778045916 | 16.11° C | 79% | 1008 hPa | 0 mm | 0 m/s | - | - |
| 1778045615 | 16.11° C | 78% | 1008.4 hPa | 0 mm | 0 m/s | - | - |
| 1778045313 | 16.11° C | 78% | 1008.3 hPa | 0 mm | 0 m/s | - | - |
| 1778045011 | 16.11° C | 75% | 1008.3 hPa | 0 mm | 0 m/s | - | - |
| 1778044708 | 16.67° C | 74% | 1008.2 hPa | 0 mm | 0 m/s | - | - |
| 1778044404 | 16.67° C | 75% | 1008.5 hPa | 0 mm | 0 m/s | - | - |
| 1778044102 | 16.67° C | 76% | 1008.2 hPa | 0 mm | 0 m/s | - | - |
| 1778043799 | 16.67° C | 77% | 1008.2 hPa | 0 mm | 0 m/s | - | - |
| 1778043496 | 16.67° C | 74% | 1008.4 hPa | 0 mm | 0 m/s | - | - |
| 1778043193 | 16.11° C | 73% | 1008.4 hPa | 0 mm | 0 m/s | - | - |
| 1778042890 | 16.11° C | 78% | 1008.4 hPa | 0 mm | 0 m/s | - | - |
| 1778042587 | 16.11° C | 81% | 1008.3 hPa | 0 mm | 0 m/s | - | - |
| 1778042284 | 16.11° C | 81% | 1008.4 hPa | 0 mm | 0 m/s | - | - |
| 1778041981 | 16.11° C | 84% | 1008.5 hPa | 0 mm | 0 m/s | - | - |
| 1778041680 | 16.11° C | 82% | 1008.3 hPa | 0 mm | 0 m/s | - | - |
| 1778041379 | 16.11° C | 82% | 1008.8 hPa | 0 mm | 0 m/s | - | - |
| 1778041077 | 16.67° C | 78% | 1008.6 hPa | 0 mm | 0 m/s | - | - |
| 1778040773 | 16.11° C | 81% | 1008.6 hPa | 0 mm | 0 m/s | - | - |
* Rain latest hour (hover to see other rain measurements)
** Current wind speed in m/s (hover to see current wind gust speed)